Regional Weather Roundup
Issued by NWS

Home | Current Version | Previous Version | Text Only | Print | Product List | Glossary Off
Versions: 1 2 3 4 5 6 7 8 9 10 11 12 13 14 15 16 17 18 19 20 21 22 23 24 25 26 27 28 29 30 31 32 33 34 35 36 37 38 39 40 41 42 43 44 45 46 47 48 49 50

000
ASUS43 KDTX 212001
RWRMI
MICHIGAN HOURLY REGIONAL WEATHER ROUNDUP
NATIONAL WEATHER SERVICE DETROIT/PONTIAC MI
300 PM EST SAT JAN 21 2017

NOTE: "FAIR" INDICATES FEW OR NO CLOUDS BELOW 12,000 FEET WITH NO
SIGNIFICANT WEATHER AND/OR OBSTRUCTION TO VISIBILITY.

MIZ047>049-052>055-059>063-066>070-074>076-081>083-212100-
SOUTHEAST LOWER MICHIGAN

CITY           SKY/WX    TMP DP  RH WIND       PRES   REMARKS
ADRIAN         CLOUDY    56  52  86 S8        29.60F
ALMA           FOG       48  47  98 SE7       29.57S VSB 1/4
ANN ARBOR      CLOUDY    56  53  90 S8        29.59F
BAD AXE        FOG       44  44 100 CALM      29.62F VSB<1/4
CARO           CLOUDY    49  48  98 SE5       29.60F FOG
DETROIT CITY   MOSUNNY   56  51  84 S8        29.62S
DETROIT        PTSUNNY   58  52  80 S8        29.61F
FLINT          CLOUDY    51  50  96 S5        29.59F FOG
GROSSE ILE     FOG       45  44  97 S6        29.60F VSB 1/4
HILLSDALE      CLOUDY    54  50  87 SE8       29.57S
HOWELL         CLOUDY    52  50  92 SE5       29.58F FOG

CITY           SKY/WX    TMP DP  RH WIND       PRES   REMARKS
JACKSON        CLOUDY    57  50  77 S12       29.57F
LAMBERTVILLE   MOSUNNY   60  52  75 S9        29.60S
LANSING        MOSUNNY   54  50  86 SE10      29.56F FOG
LAPEER         CLOUDY    50  49  95 SE5       29.61S FOG
MASON          CLOUDY    53  53 100 S9        29.57F FOG
MONROE         MOSUNNY   58  53  85 SE7       29.59F
MT. CLEMENS    CLOUDY    46  46 100 E6        29.60F
PONTIAC        FOG       48  47  96 SE6       29.59F VSB 1
PORT HOPE        N/A     44  44 100 S5        29.61S
PORT HURON     MOSUNNY   55  50  82 S7        29.62F
TRI CITIES     FOG       48  48 100 SE6       29.59F VSB 1/16
MIDLAND        FOG       44  43  96 E5        29.58S VSB<1/4
TROY           CLOUDY    53  49  85 CALM      29.62F FOG
SAGINAW HB     CLOUDY    48  45  87 E3        29.58F FOG
$$
MIZ043>046-050>051-056>058-064>065-071>073-077>080-212100-
SOUTHWEST LOWER MICHIGAN

CITY           SKY/WX    TMP DP  RH WIND       PRES   REMARKS
BATTLE CREEK   SUNNY     59  51  75 SE14      29.54F
BENTON HARBOR  SUNNY     62  48  60 S16       29.48F
BIG RAPIDS     FOG       44  43  97 SE8       29.52S VSB 1/4
COLDWATER      MOSUNNY   60  51  74 SE8       29.56S
FREMONT        CLOUDY    51  51  99 SE6       29.50S FOG
HOLLAND        SUNNY     61  50  67 S9        29.48F
GRAND RAPIDS   MOSUNNY   61  49  64 SE10      29.50F
IONIA          FAIR      54  52  95 SE15      29.53F
KALAMAZOO      SUNNY     61  48  62 S7G16     29.53F
LUDINGTON      FOG       47  47 100 SE8       29.48F VSB 1/2
MARSHALL       SUNNY     59  52  76 S12       29.54F
MOUNT PLEASANT FOG       45  44  99 E5        29.56S VSB 1/4
MUSKEGON       MOSUNNY   60  50  69 S10       29.49S
SOUTH HAVEN    SUNNY     61  50  66 S9        29.48F
$$
MIZ016>042-212100-
NORTHERN LOWER MICHIGAN

CITY           SKY/WX    TMP DP  RH WIND       PRES   REMARKS
ALPENA         FOG       38  37  97 E7        29.62F VSB 1/4 WCI  33
BEAVER ISLAND  CLOUDY    35  35  99 E9        29.55S FOG     WCI  28
BELLAIRE       CLOUDY    45  43  94 E6        29.53F
CADILLAC       FOG       39  38  97 E8        29.51F VSB<1/4 WCI  33
CHARLEVOIX     PTSUNNY   42  41  96 E9        29.56F
FRANKFORT      CLOUDY    45  45  99 E3        29.50S FOG
GAYLORD        FOG       41  38  89 SE8       29.56S VSB 1/4
GRAYLING       FOG       40  40  99 E5        29.56F VSB 1/4
HARBOR SPRINGS CLOUDY    39  37  94 E10       29.56S WCI  32
HOUGHTON LAKE  FOG       41  40  96 E8        29.56F VSB 1/2
MANISTEE       CLOUDY    45  44  97 E8        29.48F FOG
OSCODA         FOG       40  39  97 E3        29.61F VSB<1/4
PELLSTON       CLOUDY    38  35  89 SE5       29.58F WCI  34
ROGERS CITY    CLOUDY    37  36  95 SE3       29.62S FOG
TRAVERSE CITY  CLOUDY    46  41  82 SE9       29.50F
$$
MIZ007>008-015-212100-
EASTERN UPPER MICHIGAN

CITY           SKY/WX    TMP DP  RH WIND       PRES   REMARKS
KINROSS        CLOUDY    34  34 100 E13       29.60F FOG     WCI  25
MACKINAC ISLAN FOG       34  34 100 E12G21    29.59S VSB 1/4 WCI  25
NEWBERRY       CLOUDY    35  34  96 E7        29.56F FOG     WCI  29
S. S. MARIE    FOG       35  34  96 E10       29.61F VSB 1/2 WCI  27
MUNISING         N/A     37  36  96 MISG      29.53F
$$
MIZ004>006-011>014-085-212100-
CENTRAL UPPER MICHIGAN

CITY           SKY/WX    TMP DP  RH WIND       PRES   REMARKS
MANISTIQUE     FOG       34  34  98 E7        29.54F VSB 1   WCI  28
ESCANABA       MIX PCPN  35  35 100 NE5       29.52S VSB 3/4 WCI  31
SAWYER-GWINN   CLOUDY    36  34  93 E3        29.51F FOG
$$
MIZ001>003-009>011-084-212100-
WESTERN UPPER MICHIGAN

CITY           SKY/WX    TMP DP  RH WIND       PRES   REMARKS
IRON MOUNTAIN  FOG       35  34  96 E5        29.47F VSB 1/4 WCI  31
HOUGHTON       CLOUDY    35  32  88 E10       29.48F FOG     WCI  27
COPPER HARBOR    N/A     37  35  92 S6        29.52F WCI  32
IRONWOOD       CLOUDY    37  36  96 NE3       29.44S
$$

ABBREVIATIONS USED IN REMARKS
   TC - TEMPERATURE IN CELSIUS
  WCI - WIND CHILL INDEX
   HX - HEAT INDEX
  VSB - VISIBILITY





USA.gov is the U.S. government's official web portal to all federal, state and local government web resources and services.